Regional Weather Roundup
Issued by NWS Northern Indiana

Home | Current Version | Previous Version | Text Only | Print | Product List | Glossary On
Versions: 1 2 3 4 5 6 7 8 9 10 11 12 13 14 15 16 17 18 19 20 21 22 23 24 25 26 27 28 29 30 31 32 33 34 35 36 37 38 39 40 41 42 43 44 45 46 47 48 49 50
000
ASUS43 KIWX 201110
RWRIWX

KIWX WEATHER ROUNDUP
NATIONAL WEATHER SERVICE NORTHERN INDIANA
700 AM EDT WED SEP 20 2017

NOTE: "FAIR" INDICATES FEW OR NO CLOUDS BELOW 12,000 FEET WITH NO
SIGNIFICANT WEATHER AND/OR OBSTRUCTIONS TO VISIBILITY.

* THESE STATIONS ARE NOT UNDER NWS QUALITY CONTROL. THEY ALSO MAY NOT
  REPORT WEATHER SUCH AS PRECIPITATION OR FOG.

INZ001>027-201200-
NORTHERN INDIANA

CITY           SKY/WX    TMP DP  RH WIND       PRES   REMARKS
GARY*          PTCLDY    64  64 100 CALM      29.94R FOG
VALPARAISO     FOG       59  59 100 NE3       29.96R VSB 1/4
MICHIGAN CITY* FOG       59  59 100 CALM      29.96S VSB 1/4
LAPORTE*       FOG       58  58  99 CALM      29.97R VSB 1/4
KNOX*          MOCLDY    55  55 100 CALM      29.96R VSB 1
SOUTH BEND     FOG       62  62 100 E3        29.98R VSB 1/4
ELKHART*       CLOUDY    64  64 100 CALM      29.97  FOG
GOSHEN         FOG       64  62  93 E3        29.98R VSB 1/4
MONTICELLO*    FOG       62  60  96 CALM      29.95R VSB 1/2
LOGANSPORT*    FOG       59  59 100 SE3       29.97R VSB 1/4
WARSAW*        FOG       59  59 100 CALM      29.97S VSB 1/2
AUBURN*        FOG       63  63 100 CALM      30.00R VSB 1/4
FORT WAYNE     FOG       62  60  93 CALM      29.99R VSB 1/4
HUNTINGTON*    CLOUDY    63  62  96 CALM      29.98R FOG
PERU/GRISSOM   FOG       63  63 100 SE6       29.97R VSB 1

$$
INZ028>050-201200-
CENTRAL INDIANA

CITY           SKY/WX    TMP DP  RH WIND       PRES   REMARKS
LAFAYETTE      CLEAR     63  63 100 CALM      29.95R FOG
KOKOMO*        FOG       63  63 100 S5        29.99R VSB 1/4
MUNCIE*        PTCLDY    68  65  90 S5        29.99R
INDIANAPOLIS   PTCLDY    66  65  96 CALM      29.97R

$$
MIZ043>046-050>051-056>058-064>065-071>073-077>080-201200-
SOUTHWEST LOWER MICHIGAN

CITY           SKY/WX    TMP DP  RH WIND       PRES   REMARKS
BATTLE CREEK   CLOUDY    67  66  97 S3        29.99R FOG
BENTON HARBOR  FOG       64  63  96 E3        29.96R VSB 1/4
COLDWATER*     CLOUDY    66  66 100 CALM      29.99R FOG
HILLSDALE*     CLOUDY    64  63  94 CALM      30.00R FOG
HOLLAND        CLOUDY    66  64  93 SE3       29.97S FOG
GRAND RAPIDS   CLOUDY    68  66  93 SW5       29.98R
KALAMAZOO      CLOUDY    67  64  90 CALM      29.99R FOG
STURGIS*       CLOUDY    65  65  99 CALM      29.98R FOG
THREE RIVERS*  CLOUDY    66  65  97 CALM      29.99R FOG

$$
OHZ001>008-015>018-024>025-201200-
NORTHWEST OHIO

CITY           SKY/WX    TMP DP  RH WIND       PRES   REMARKS
WAUSEON*       FOG       66  66 100 CALM      30.00R VSB 1
DEFIANCE       FOG       62  61  96 CALM      30.00R VSB 1/4
FINDLAY        CLOUDY    67  63  87 CALM      29.99R
TOLEDO EXPRESS CLOUDY    64  32  30 CALM      29.99R HAZE
TOLEDO METCALF MOCLDY    65  64  97 SE3       30.00R FOG
LIMA           MOCLDY    64  64 100 CALM      30.01R

$$
AND FOR LAKE MICHIGAN COASTAL AND OPEN LAKE BUOY OBSERVATIONS

STATION/POSITION TEMP    WIND        PRES    VSBY  WAVE
                 AIR SEA DIR/SP/G                  HT/PER
                 (F)     (DEG/KT/KT) (MB)    (MI)  (FT/S)
CALUMET HARBOR    66     140/  2/  2 1013.0R
MICHIGAN CITY     63     110/  4/  5   N/A
BURNS HARBOR      67     170/  6/  9 1014.2S
SAINT JOSEPH      63     190/  1/  4 1014.9
SOUTH LAKE BUOY   68 68  100/  6/  8 1013.6F         1
4 MI NW BRIDGMAN  64 69  140/  4/  6 1014.3          0
MICHIGAN CITY     66 68  140/  6/  8   N/A           1

$$
&&




USA.gov is the U.S. government's official web portal to all federal, state and local government web resources and services.